Voltar ao catálogo

COSMOS 2251 DEB

AtivoLEO
NORAD 35764·DEBRIS·🇷🇺 Russia

Lançado Jun 16, 1993 de Plesetsk Cosmodrome

Loading…

Próximas Passagens (próximas 24 horas)

TLE

EnvelhecendoSource: Space-Track

Época: Sep 12, 2026, 10:23 UTC

1 35764U 93036ARJ 26255.43274879  .00004613  00000-0  60062-3 0  9991
2 35764  74.0229 164.6290 0025896 216.3614 143.5804 14.80690695700945

Acompanhe COSMOS 2251 DEB em tempo real com AllMySat

Download on the App Store